Weather History for Shelton, WA

Change the Weather History Date:

Thursday, January 3, 2013

  Actual Average Record
Temperature  
Mean Temperature 29 °F -  
Max Temperature 39 °F 42 °F 55 °F (1984)
Min Temperature 19 °F 32 °F 10 °F (1950)
Degree Days  
Heating Degree Days 36    
Moisture  
Dew Point 29 °F    
Average Humidity 92    
Maximum Humidity 100    
Minimum Humidity 65    
Precipitation  
Precipitation 0.31 in - - ()
Sea Level Pressure  
Sea Level Pressure 30.14 in    
Wind  
Wind Speed 1 mph (North)    
Max Wind Speed 7 mph    
Max Gust Speed -    
Visibility 9 miles    
Events Rain    
Averages and records for this station are not official NWS values.
T = Trace of Precipitation, MM = Missing Value Source: NWS Daily Summary

Daily Weather History Graph

Daily Weather History Graph

Search for Another Location

Airport:

Trip Planner

Search our weather history database for the weather conditions in past years. The results will help you decide how hot, cold, wet, or windy it might be!

Date:

Astronomy

Jan. 03, 2013 Rise Set
Actual Time 7:59 AM PST 4:35 PM PST
Civil Twilight 7:23 AM PST 5:10 PM PST
Nautical Twilight 6:45 AM PST 5:49 PM PST
Astronomical Twilight 6:08 AM PST 6:26 PM PST
Moon 11:46 PM PST (1/3) 10:46 AM PST (1/3)
Length of Visible Light 9h 47m
Length of Day
8h 36m
Waning Gibbous, 64% of the Moon is Illuminated
Jan 3
Waning Gibbous
Jan 4
Last Quarter
Jan 11
New
Jan 18
First Quarter
Jan 26
Full

Hourly Weather History & Observations

Time (PST) Temp. Windchill Dew Point Humidity Pressure Visibility Wind Dir Wind Speed Gust Speed Precip Events Conditions
12:24 AM 24.8 °F - 24.8 °F 100% 30.17 in 4.0 mi Calm Calm - N/A   Partly Cloudy
12:53 AM 24.1 °F - 23.0 °F 96% 30.19 in 1.5 mi Calm Calm - N/A   Mostly Cloudy
1:11 AM 24.8 °F - 21.2 °F 86% 30.17 in 3.0 mi Calm Calm - N/A   Mostly Cloudy
1:29 AM 24.8 °F - 23.0 °F 93% 30.16 in 2.5 mi Calm Calm - N/A   Mostly Cloudy
1:33 AM 24.8 °F - 23.0 °F 93% 30.16 in 5.0 mi Calm Calm - N/A   Scattered Clouds
1:53 AM 24.1 °F - 23.0 °F 96% 30.18 in 10.0 mi Calm Calm - N/A   Clear
2:53 AM 24.1 °F - 23.0 °F 96% 30.18 in 10.0 mi Calm Calm - N/A   Clear
3:53 AM 24.1 °F - 21.9 °F 91% 30.18 in 10.0 mi Calm Calm - N/A   Clear
4:53 AM 24.1 °F 19.7 °F 23.0 °F 96% 30.16 in 10.0 mi NNE 3.5 mph - N/A   Clear
5:53 AM 21.9 °F - 19.9 °F 92% 30.14 in 10.0 mi Calm Calm - N/A   Clear
6:53 AM 23.0 °F - 21.0 °F 92% 30.13 in 10.0 mi Calm Calm - N/A   Clear
7:53 AM 19.9 °F - 18.0 °F 92% 30.12 in 10.0 mi Calm Calm - N/A   Clear
8:53 AM 21.9 °F - 21.0 °F 96% 30.14 in 10.0 mi Calm Calm - N/A   Clear
9:53 AM 28.9 °F 25.2 °F 28.0 °F 96% 30.15 in 10.0 mi NNE 3.5 mph - N/A   Clear
10:53 AM 32.0 °F 28.7 °F 30.9 °F 96% 30.15 in 10.0 mi NNE 3.5 mph - N/A   Clear
11:53 AM 37.9 °F - 30.9 °F 76% 30.13 in 10.0 mi Calm Calm - N/A   Clear
12:53 PM 39.9 °F - 28.9 °F 65% 30.12 in 10.0 mi Calm Calm - N/A   Clear
1:53 PM 39.0 °F - 32.0 °F 76% 30.12 in 10.0 mi Calm Calm - N/A   Clear
2:53 PM 37.9 °F - 30.0 °F 73% 30.12 in 10.0 mi Calm Calm - N/A   Overcast
3:53 PM 35.6 °F 31.7 °F 30.2 °F 81% 30.10 in 10.0 mi NNW 4.6 mph - N/A   Overcast
4:53 PM 36.0 °F 33.3 °F 30.9 °F 82% 30.11 in 10.0 mi North 3.5 mph - 0.00 in   Overcast
5:53 PM 34.0 °F 28.0 °F 32.0 °F 92% 30.12 in 10.0 mi North 6.9 mph - 0.08 in Rain Light Rain
6:53 PM 33.1 °F 28.7 °F 33.1 °F 100% 30.12 in 10.0 mi North 4.6 mph - 0.08 in Rain Light Rain
7:26 PM 33.8 °F 30.8 °F 33.8 °F 100% 30.10 in 10.0 mi NE 3.5 mph - 0.01 in Rain Light Rain
7:53 PM 34.0 °F 31.0 °F 33.1 °F 96% 30.12 in 10.0 mi NNE 3.5 mph - 0.02 in Rain Rain
8:53 PM 34.0 °F 31.0 °F 34.0 °F 100% 30.13 in 10.0 mi North 3.5 mph - 0.05 in   Overcast
9:53 PM 35.1 °F 32.2 °F 35.1 °F 100% 30.13 in 10.0 mi North 3.5 mph - 0.02 in Rain Light Rain
10:06 PM 35.6 °F 32.8 °F 35.6 °F 100% 30.11 in 10.0 mi North 3.5 mph - 0.01 in Rain Light Rain
10:27 PM 35.6 °F 32.8 °F 35.6 °F 100% 30.12 in 10.0 mi North 3.5 mph - 0.03 in Rain Light Rain
10:53 PM 36.0 °F 33.3 °F 35.1 °F 97% 30.14 in 10.0 mi North 3.5 mph - 0.04 in   Overcast
11:09 PM 35.6 °F - 35.6 °F 100% 30.13 in 10.0 mi Calm Calm - 0.01 in   Overcast
11:36 PM 35.6 °F - 35.6 °F 100% 30.14 in 8.0 mi Calm Calm - 0.02 in   Overcast
11:53 PM 35.1 °F - 35.1 °F 100% 30.16 in 9.0 mi Calm Calm - 0.02 in Rain Light Rain